| time (UTC) | temp F | wind direction | speed knots | gust knots | rain 1hr in | rain 24hr in | rain mn in | humidity % | barometer mb |
| 20260503211539 | 61 | 235 | 4.3 | 9.6 | 0.00 | 0.00 | 0.00 | 68 | 1013.9 |
| 20260503210036 | 62 | 152 | 2.6 | 13.0 | 0.00 | 0.00 | 0.00 | 70 | 1013.7 |
| 20260503204542 | 61 | 131 | 2.6 | 7.8 | 0.00 | 0.00 | 0.00 | 72 | 1013.8 |
| 20260503203039 | 60 | 127 | 2.6 | 9.6 | 0.00 | 0.00 | 0.00 | 74 | 1014.0 |
| 20260503201538 | 59 | 119 | 2.6 | 9.6 | 0.00 | 0.00 | 0.00 | 75 | 1014.0 |
| 20260503200038 | 59 | 144 | 1.7 | 9.6 | 0.00 | 0.00 | 0.00 | 74 | 1014.0 |
| 20260503194536 | 59 | 178 | 0.9 | 7.0 | 0.00 | 0.00 | 0.00 | 75 | 1014.2 |
| 20260503193047 | 60 | 7 | 1.7 | 8.7 | 0.00 | 0.00 | 0.00 | 74 | 1014.2 |
| 20260503191538 | 61 | 187 | 3.5 | 8.7 | 0.00 | 0.00 | 0.00 | 71 | 1014.1 |
| 20260503190042 | 61 | 184 | 2.6 | 8.7 | 0.00 | 0.00 | 0.00 | 71 | 1014.2 |
| 20260503184538 | 59 | 93 | 2.6 | 8.7 | 0.00 | 0.00 | 0.00 | 76 | 1014.1 |
| 20260503183050 | 59 | 131 | 0.9 | 7.0 | 0.00 | 0.00 | 0.00 | 75 | 1014.0 |
| 20260503181538 | 60 | 0 | 0.9 | 6.1 | 0.00 | 0.00 | 0.00 | 74 | 1014.1 |
| 20260503180036 | 59 | 124 | 1.7 | 6.1 | 0.00 | 0.00 | 0.00 | 76 | 1013.9 |
| 20260503174542 | 59 | 122 | 1.7 | 7.0 | 0.00 | 0.00 | 0.00 | 79 | 1013.9 |
| 20260503173036 | 57 | 302 | 1.7 | 7.0 | 0.00 | 0.00 | 0.00 | 81 | 1014.0 |
| 20260503171537 | 57 | 0 | 0.9 | 6.1 | 0.00 | 0.00 | 0.00 | 81 | 1013.9 |
| 20260503081536 | 52 | 327 | 0.0 | 4.3 | 0.00 | 0.00 | 0.00 | 90 | 1012.8 |
| 20260503071538 | 52 | 0 | 0.9 | 7.8 | 0.00 | 0.00 | 0.00 | 91 | 1012.7 |
| 20260503054541 | 52 | 198 | 0.9 | 7.8 | 0.00 | 0.00 | 0.00 | 90 | 1012.9 |
| 20260503053043 | 52 | 340 | 0.9 | 6.1 | 0.00 | 0.00 | 0.00 | 90 | 1013.1 |
| 20260503051544 | 52 | 0 | 1.7 | 6.1 | 0.00 | 0.00 | 0.00 | 90 | 1013.1 |
| 20260503050041 | 52 | 0 | 0.0 | 4.3 | 0.00 | 0.00 | 0.00 | 89 | 1013.1 |
| 20260503044541 | 52 | 0 | 1.7 | 7.8 | 0.00 | 0.00 | 0.00 | 89 | 1013.1 |
| 20260503043037 | 52 | 238 | 2.6 | 7.0 | 0.00 | 0.00 | 0.00 | 89 | 1012.9 |
| 20260503041543 | 52 | 0 | 0.0 | 3.5 | 0.00 | 0.00 | 0.00 | 89 | 1012.9 |
| 20260503040044 | 52 | 160 | 1.7 | 7.0 | 0.00 | 0.00 | 0.00 | 89 | 1012.9 |
| 20260503034538 | 52 | 162 | 0.0 | 6.1 | 0.00 | 0.00 | 0.00 | 89 | 1012.9 |
| 20260503033046 | 52 | 282 | 0.9 | 8.7 | 0.00 | 0.00 | 0.00 | 89 | 1012.4 |
| 20260503031535 | 52 | 150 | 0.9 | 7.8 | 0.00 | 0.00 | 0.00 | 89 | 1012.2 |
| 20260503030035 | 53 | 316 | 1.7 | 7.0 | 0.00 | 0.00 | 0.00 | 89 | 1012.0 |
| 20260503024542 | 53 | 0 | 1.7 | 7.0 | 0.00 | 0.00 | 0.00 | 88 | 1012.1 |
| 20260503023040 | 53 | 351 | 1.7 | 9.6 | 0.00 | 0.00 | 0.00 | 87 | 1012.1 |
| 20260503021536 | 53 | 261 | 1.7 | 7.8 | 0.00 | 0.00 | 0.00 | 87 | 1012.0 |
| 20260503020036 | 54 | 86 | 1.7 | 7.8 | 0.00 | 0.00 | 0.00 | 86 | 1012.1 |
| 20260503014535 | 54 | 245 | 1.7 | 9.6 | 0.00 | 0.00 | 0.00 | 85 | 1012.2 |
| 20260503013046 | 54 | 0 | 0.0 | 5.2 | 0.00 | 0.00 | 0.00 | 84 | 1012.2 |
| 20260503011538 | 55 | 193 | 1.7 | 6.1 | 0.00 | 0.00 | 0.00 | 83 | 1012.4 |
| 20260503010049 | 55 | 253 | 2.6 | 8.7 | 0.00 | 0.00 | 0.00 | 82 | 1012.4 |
| 20260503004536 | 55 | 208 | 1.7 | 11.3 | 0.00 | 0.00 | 0.00 | 81 | 1012.5 |
| 20260503003035 | 56 | 307 | 1.7 | 7.0 | 0.00 | 0.00 | 0.00 | 81 | 1012.5 |
| 20260503001543 | 55 | 266 | 0.9 | 13.0 | 0.00 | 0.00 | 0.00 | 81 | 1012.7 |
| 20260503000041 | 56 | 219 | 4.3 | 10.4 | 0.00 | 0.00 | 0.00 | 78 | 1012.7 |
| 20260502234539 | 57 | 0 | 0.0 | 7.8 | 0.00 | 0.00 | 0.00 | 78 | 1012.8 |
| 20260502233036 | 57 | 302 | 2.6 | 8.7 | 0.00 | 0.00 | 0.00 | 76 | 1012.9 |
| 20260502231543 | 57 | 359 | 0.0 | 8.7 | 0.00 | 0.00 | 0.00 | 78 | 1013.2 |
| 20260502230038 | 57 | 314 | 2.6 | 10.4 | 0.00 | 0.00 | 0.00 | 77 | 1013.3 |
| 20260502224540 | 56 | 139 | 3.5 | 11.3 | 0.00 | 0.00 | 0.00 | 80 | 1013.6 |
| 20260502223037 | 57 | 183 | 2.6 | 7.0 | 0.00 | 0.00 | 0.00 | 78 | 1013.8 |
| 20260502221536 | 57 | 0 | 2.6 | 6.1 | 0.00 | 0.00 | 0.00 | 77 | 1014.0 |
| 20260502220044 | 57 | 18 | 1.7 | 8.7 | 0.00 | 0.00 | 0.00 | 78 | 1014.2 |
| 20260502214551 | 58 | 1 | 1.7 | 6.1 | 0.00 | 0.00 | 0.00 | 76 | 1014.2 |
| 20260502213039 | 58 | 76 | 2.6 | 7.8 | 0.00 | 0.00 | 0.00 | 75 | 1014.2 |